• In Hungary
  • List of Countries
  • For 7 days
  • Water Temperature
  • Satellite Maps
  • Weather Map
  • News
  • Weather Widgets
  • user-avatar
    Login

    Hourly Weather Sagan-Nur

    Today, 12 December, Tuesday

    Time Temperature Precipitation Wind Pressure Humidity
    00:00 -24°C° 0 mm 1 mps 567 mmHg 79%
    01:00 -27°C° 0 mm 2 mps 567 mmHg 81%
    02:00 -27°C° 0 mm 2 mps 566 mmHg 82%
    03:00 -28°C° 0 mm 2 mps 566 mmHg 82%
    04:00 -28°C° 0 mm 2 mps 566 mmHg 83%
    05:00 -28°C° 0 mm 2 mps 566 mmHg 83%
    06:00 -28°C° 0 mm 2 mps 566 mmHg 83%
    07:00 -27°C° 0 mm 1 mps 566 mmHg 76%
    08:00 -28°C° 0 mm 2 mps 566 mmHg 77%
    09:00 -26°C° 0 mm 2 mps 566 mmHg 79%
    10:00 -25°C° 0 mm 2 mps 566 mmHg 80%
    11:00 -24°C° 0 mm 2 mps 567 mmHg 81%
    12:00 -21°C° 0 mm 2 mps 567 mmHg 83%
    13:00 -20°C° 0 mm 2 mps 567 mmHg 84%
    14:00 -21°C° 0.1 mm 2 mps 566 mmHg 87%
    15:00 -23°C° 0.1 mm 2 mps 566 mmHg 90%
    16:00 -21°C° 0.1 mm 1 mps 565 mmHg 93%
    17:00 -21°C° 0.1 mm 1 mps 566 mmHg 94%
    18:00 -21°C° 0.1 mm 1 mps 566 mmHg 95%
    19:00 -25°C° 0 mm 2 mps 566 mmHg 96%
    20:00 -25°C° 0.1 mm 2 mps 566 mmHg 96%
    21:00 -25°C° 0.1 mm 2 mps 566 mmHg 96%
    22:00 -26°C° 0.1 mm 2 mps 566 mmHg 97%
    23:00 -26°C° 0.1 mm 2 mps 567 mmHg 97%

    Tomorrow, 13 December, Wednesday

    Time Temperature Precipitation Wind Pressure Humidity
    00:00 -26°C° 0.1 mm 2 mps 567 mmHg 97%
    01:00 -27°C° 0.1 mm 2 mps 567 mmHg 97%
    02:00 -27°C° 0 mm 2 mps 567 mmHg 97%
    03:00 -28°C° 0 mm 2 mps 567 mmHg 97%
    04:00 -28°C° 0 mm 2 mps 567 mmHg 97%
    05:00 -28°C° 0 mm 2 mps 567 mmHg 96%
    06:00 -29°C° 0 mm 2 mps 568 mmHg 96%
    07:00 -29°C° 0 mm 2 mps 568 mmHg 96%
    08:00 -28°C° 0 mm 2 mps 568 mmHg 95%
    09:00 -28°C° 0 mm 2 mps 569 mmHg 95%
    10:00 -27°C° 0 mm 2 mps 570 mmHg 94%
    11:00 -27°C° 0 mm 2 mps 570 mmHg 93%
    12:00 -26°C° 0 mm 2 mps 570 mmHg 93%
    13:00 -25°C° 0 mm 2 mps 571 mmHg 92%
    14:00 -26°C° 0 mm 2 mps 570 mmHg 93%
    15:00 -27°C° 0 mm 2 mps 570 mmHg 95%
    16:00 -28°C° 0 mm 2 mps 570 mmHg 96%
    17:00 -28°C° 0 mm 2 mps 570 mmHg 96%
    18:00 -28°C° 0 mm 2 mps 570 mmHg 96%
    19:00 -29°C° 0 mm 2 mps 571 mmHg 96%
    20:00 -29°C° 0 mm 2 mps 571 mmHg 96%
    21:00 -29°C° 0 mm 2 mps 571 mmHg 96%
    22:00 -29°C° 0 mm 2 mps 571 mmHg 96%
    23:00 -29°C° 0 mm 2 mps 571 mmHg 96%

    Day after tomorrow, 14 December, Thursday

    Time Temperature Precipitation Wind Pressure Humidity
    00:00 -30°C° 0 mm 2 mps 571 mmHg 96%
    01:00 -30°C° 0 mm 2 mps 571 mmHg 96%
    02:00 -30°C° 0 mm 2 mps 571 mmHg 96%
    03:00 -30°C° 0 mm 2 mps 571 mmHg 96%
    04:00 -30°C° 0 mm 2 mps 571 mmHg 96%
    05:00 -30°C° 0.1 mm 2 mps 571 mmHg 96%
    06:00 -30°C° 0.1 mm 2 mps 571 mmHg 96%
    07:00 -30°C° 0.1 mm 2 mps 572 mmHg 96%
    08:00 -29°C° 0.1 mm 2 mps 572 mmHg 96%
    09:00 -28°C° 0.1 mm 2 mps 573 mmHg 95%
    10:00 -28°C° 0.1 mm 2 mps 573 mmHg 95%
    11:00 -29°C° 0.1 mm 3 mps 573 mmHg 94%
    12:00 -27°C° 0.1 mm 3 mps 573 mmHg 92%
    13:00 -26°C° 0.1 mm 3 mps 573 mmHg 91%
    14:00 -27°C° 0.1 mm 3 mps 573 mmHg 92%
    15:00 -27°C° 0.1 mm 3 mps 573 mmHg 94%
    16:00 -29°C° 0.1 mm 3 mps 573 mmHg 95%
    17:00 -29°C° 0.1 mm 3 mps 573 mmHg 96%
    18:00 -29°C° 0.1 mm 3 mps 573 mmHg 96%
    19:00 -30°C° 0.1 mm 3 mps 574 mmHg 96%
    20:00 -30°C° 0.1 mm 3 mps 574 mmHg 96%
    21:00 -30°C° 0.1 mm 3 mps 574 mmHg 96%
    22:00 -28°C° 0.1 mm 2 mps 574 mmHg 96%
    23:00 -28°C° 0.1 mm 2 mps 574 mmHg 96%

    15 December, Friday

    Time Temperature Precipitation Wind Pressure Humidity
    00:00 -28°C° 0.1 mm 2 mps 574 mmHg 96%
    01:00 -28°C° 0.1 mm 2 mps 574 mmHg 96%
    02:00 -28°C° 0.1 mm 2 mps 574 mmHg 96%
    03:00 -28°C° 0.1 mm 2 mps 574 mmHg 96%
    04:00 -28°C° 0.1 mm 2 mps 574 mmHg 96%
    05:00 -30°C° 0.1 mm 3 mps 574 mmHg 96%
    06:00 -30°C° 0.1 mm 3 mps 575 mmHg 96%
    07:00 -30°C° 0.1 mm 3 mps 575 mmHg 96%
    08:00 -30°C° 0.1 mm 3 mps 575 mmHg 95%
    09:00 -29°C° 0.1 mm 3 mps 575 mmHg 95%
    10:00 -29°C° 0.1 mm 3 mps 575 mmHg 95%
    11:00 -27°C° 0.1 mm 3 mps 576 mmHg 94%
    12:00 -26°C° 0.1 mm 3 mps 576 mmHg 93%
    13:00 -25°C° 0.1 mm 3 mps 576 mmHg 93%
    14:00 -26°C° 0 mm 3 mps 576 mmHg 94%
    15:00 -27°C° 0 mm 3 mps 575 mmHg 95%
    16:00 -29°C° 0 mm 3 mps 575 mmHg 97%
    17:00 -29°C° 0 mm 3 mps 575 mmHg 96%
    18:00 -29°C° 0 mm 3 mps 575 mmHg 96%
    19:00 -29°C° 0 mm 3 mps 576 mmHg 96%
    20:00 -27°C° 0.1 mm 3 mps 576 mmHg 96%
    21:00 -27°C° 0.1 mm 3 mps 576 mmHg 96%
    22:00 -27°C° 0.1 mm 3 mps 576 mmHg 96%
    23:00 -27°C° 0.1 mm 3 mps 576 mmHg 96%

    16 December, Saturday

    Time Temperature Precipitation Wind Pressure Humidity
    00:00 -27°C° 0.1 mm 3 mps 575 mmHg 95%
    01:00 -27°C° 0.1 mm 3 mps 575 mmHg 95%
    02:00 -26°C° 0.1 mm 3 mps 575 mmHg 95%
    03:00 -26°C° 0.1 mm 3 mps 575 mmHg 95%
    04:00 -26°C° 0.1 mm 3 mps 575 mmHg 95%
    05:00 -25°C° 0.1 mm 3 mps 575 mmHg 95%
    06:00 -25°C° 0.1 mm 3 mps 575 mmHg 95%
    07:00 -25°C° 0.1 mm 3 mps 575 mmHg 95%
    08:00 -25°C° 0.1 mm 3 mps 575 mmHg 94%
    09:00 -24°C° 0.1 mm 3 mps 575 mmHg 94%
    10:00 -25°C° 0.1 mm 4 mps 575 mmHg 94%
    11:00 -24°C° 0.2 mm 4 mps 575 mmHg 92%
    12:00 -23°C° 0.2 mm 4 mps 574 mmHg 90%
    13:00 -22°C° 0.2 mm 4 mps 574 mmHg 89%
    14:00 -22°C° 0.2 mm 4 mps 574 mmHg 90%
    15:00 -23°C° 0.2 mm 4 mps 574 mmHg 92%
    16:00 -22°C° 0.2 mm 3 mps 573 mmHg 93%
    17:00 -22°C° 0.2 mm 3 mps 573 mmHg 94%
    18:00 -22°C° 0.2 mm 3 mps 573 mmHg 94%
    19:00 -23°C° 0.2 mm 3 mps 573 mmHg 95%
    20:00 -23°C° 0.2 mm 3 mps 573 mmHg 95%
    21:00 -23°C° 0.2 mm 3 mps 573 mmHg 95%
    22:00 -22°C° 0.2 mm 3 mps 573 mmHg 95%
    23:00 -22°C° 0.2 mm 3 mps 573 mmHg 95%

    17 December, Sunday

    Time Temperature Precipitation Wind Pressure Humidity
    00:00 -22°C° 0.2 mm 3 mps 573 mmHg 95%
    01:00 -22°C° 0.2 mm 3 mps 573 mmHg 95%
    02:00 -22°C° 0.3 mm 3 mps 573 mmHg 95%
    03:00 -22°C° 0.3 mm 3 mps 573 mmHg 95%
    04:00 -21°C° 0.3 mm 3 mps 573 mmHg 95%
    05:00 -21°C° 0.2 mm 3 mps 573 mmHg 95%
    06:00 -21°C° 0.2 mm 3 mps 573 mmHg 95%
    07:00 -21°C° 0.2 mm 3 mps 573 mmHg 95%
    08:00 -21°C° 0.2 mm 3 mps 573 mmHg 95%
    09:00 -21°C° 0.2 mm 3 mps 574 mmHg 95%
    10:00 -21°C° 0.2 mm 3 mps 574 mmHg 94%
    11:00 -19°C° 0.1 mm 3 mps 574 mmHg 93%
    12:00 -19°C° 0.1 mm 3 mps 574 mmHg 92%
    13:00 -18°C° 0.1 mm 3 mps 574 mmHg 90%
    14:00 -19°C° 0.1 mm 3 mps 574 mmHg 91%
    15:00 -19°C° 0.1 mm 3 mps 573 mmHg 93%
    16:00 -21°C° 0.1 mm 3 mps 573 mmHg 94%
    17:00 -21°C° 0.1 mm 3 mps 573 mmHg 94%
    18:00 -22°C° 0.1 mm 3 mps 573 mmHg 95%
    19:00 -22°C° 0.1 mm 3 mps 574 mmHg 95%
    20:00 -22°C° 0.1 mm 3 mps 574 mmHg 95%
    21:00 -22°C° 0.1 mm 3 mps 574 mmHg 95%
    22:00 -22°C° 0.1 mm 3 mps 574 mmHg 95%
    23:00 -21°C° 0.2 mm 3 mps 574 mmHg 95%
    Show more